Powrót do katalogu

FENGYUN 1C DEB

LostPO
NORAD 37915·DEBRIS·🇨🇳 China

Wystrzelony May 10, 1999 z Taiyuan Satellite Launch Center

Loading…

Następne Przeloty (najbliższe 24 godziny)

TLE

NieaktualneSource: Space-Track

Epoka: Jan 12, 2024, 09:15 UTC

1 37915U 99025ENQ 24012.38597811  .00002754  00000-0  19526-2 0  9994
2 37915  98.2953  63.4836 0210021  74.6933 287.7333 13.88358584770270

Śledź FENGYUN 1C DEB w czasie rzeczywistym z AllMySat

Download on the App Store